This is the latest recevied weather packets stored in our database for station/object KB3VSP. If no packets are shown the sender has not sent any weather packets the latest 10 day(s).
| Time | Temp. | Humidity | Pressure | Rain* | Wind** | Luminosity | Snow |
|---|---|---|---|---|---|---|---|
| 1777828225 | 11.67° C | 43% | 1016.3 hPa | 0 mm | - | 740 W/m² | - |
| 1777827921 | 12.22° C | 44% | 1016.8 hPa | 0 mm | - | 84 W/m² | - |
| 1777827618 | 11.67° C | 45% | 1016.8 hPa | 0 mm | - | 724 W/m² | - |
| 1777827315 | 11.11° C | 44% | 1017 hPa | 0 mm | - | 611 W/m² | - |
| 1777827011 | 12.22° C | 43% | 1016.9 hPa | 0 mm | - | 150 W/m² | - |
| 1777826709 | 12.22° C | 45% | 1016.8 hPa | 0 mm | - | 353 W/m² | - |
| 1777826405 | 12.22° C | 45% | 1016.9 hPa | 0 mm | - | 773 W/m² | - |
| 1777826103 | 12.78° C | 44% | 1016.6 hPa | 0 mm | - | 747 W/m² | - |
| 1777825799 | 12.22° C | 44% | 1016.8 hPa | 0 mm | - | 737 W/m² | - |
| 1777825497 | 11.11° C | 44% | 1016.9 hPa | 0 mm | - | 692 W/m² | - |
| 1777825194 | 11.67° C | 46% | 1017.2 hPa | 0 mm | - | 625 W/m² | - |
| 1777824890 | 11.11° C | 44% | 1017.3 hPa | 0 mm | - | 769 W/m² | - |
| 1777824587 | 11.11° C | 44% | 1017.3 hPa | 0 mm | - | 794 W/m² | - |
| 1777824284 | 11.67° C | 44% | 1017.3 hPa | 0 mm | - | 255 W/m² | - |
| 1777823979 | 11.11° C | 44% | 1017.4 hPa | 0 mm | - | 163 W/m² | - |
| 1777823677 | 11.67° C | 41% | 1017.4 hPa | 0 mm | - | 138 W/m² | - |
| 1777823373 | 11.67° C | 45% | 1017.3 hPa | 0 mm | - | 120 W/m² | - |
| 1777823071 | 11.11° C | 44% | 1017.5 hPa | 0 mm | - | 116 W/m² | - |
| 1777822769 | 10.56° C | 44% | 1017.4 hPa | 0 mm | - | 86 W/m² | - |
| 1777822466 | 10.56° C | 48% | 1017.4 hPa | 0 mm | - | 58 W/m² | - |
| 1777822164 | 10° C | 45% | 1017.6 hPa | 0 mm | - | 111 W/m² | - |
| 1777821861 | 10° C | 46% | 1017.7 hPa | 0 mm | - | 49 W/m² | - |
| 1777821558 | 10° C | 44% | 1017.7 hPa | 0 mm | - | 47 W/m² | - |
| 1777821256 | 10° C | 50% | 1017.6 hPa | 0 mm | - | 73 W/m² | - |
| 1777820953 | 9.44° C | 48% | 1017.3 hPa | 0 mm | - | 44 W/m² | - |
* Rain latest hour (hover to see other rain measurements)
** Current wind speed in m/s (hover to see current wind gust speed)